Location: *
(51.0333°S, 178.4667°E)
Time: 17:57:37
(UTC+00:00)

Cosmos 1486 Rocket - Pass Details

Date: 15 November 2019
Orbit: 758 x 784 km, 74.1° (Epoch: 14 December)

Event Time Altitude Azimuth Distance (km) Brightness Sun altitude
Rises 11:40:15 0° 205° (SSW) 3,261 8.4 -20.5°
Reaches altitude 10° 11:42:38 10° 206° (SSW) 2,328 7.5 -20.5°
Maximum altitude 11:47:56 85° 291° (WNW) 781 3.9 -20.5°
Enters shadow 11:49:44 43° 17° (NNE) 1,082 4.3 -20.5°
